STARLINK-1911, 46749

Orbit data source: Space-Track

STARLINK-1911, 46749 is a payload satellite owned by SpaceX/Seattle (US) in LEO that was launched on Sat, 24 Oct 2020 UTC via an FALCON 9 launch vehicle from the Air Force Eastern Test Range (AFETR). Payload-class satellites include a variety of spacecraft equipped with specific instruments for various scientific and technological missions. These include communications satellites like Starlink; space stations such as the ISS; scientific satellites like the Hubble; Earth observation satellites from companies like Planet Labs, Umbra, and HawkEye 360; GPS; miniature CubeSats for education and research; and military/defense satellites.

Not visible in the next 10 days
Identifier
46749, 2020-074L
Orbit
LEO
Country
Flag of USUS
Related business
Manufacturer
SpaceX/Seattle
Mission
Partially operational Commercial Communications
Bus & Motor
STARLINK, Unknown motor
Mass
260 kg wet, ~248 kg dry
Launch date (UTC)
2020-10-24 (5 years ago)
Launch vehicle
FALCON 9
Launch site
Air Force Eastern Test Range (AFETR)
Object type
Payload
Rocket body
Debris
Shape & HBR
Box + 1 Pan, 10.1 m
Radar Cross Section
13.562 m², Large (>1 m²)

Expand to show TLE details & history
Last TLE update: 7 hours ago

TLE from 7 hours ago
0 STARLINK-1911
1 46749U 20074L   26072.51341656  .00148008  00000-0  10534-2 0  9997
2 46749  53.0462 259.4873 0001095  15.7420 344.3632 15.72906422297881
Epoch: 2026-03-13T12:19Z
TLE epoch observation values (Epoch: 2026-03-13T12:19:19.190Z)
Latitude
-0.00001°
Longitude
-96.49053°
Altitude
350.79 km
Speed
7.7 km/s
True Right ascension
17h 17m 56s
True Declination
0° 00' 00"
Sunlit
Object was in daylight at epoch
Visualization orbit readout
Latitude
Unknown
Longitude
Unknown
Altitude
Unknown
Speed
Unknown
Apparent Right ascension
Unknown
Apparent Declination
Unknown
Sunlit
N/A
Visualization observer readout
Local Sidereal Time
00:10:22
Azimuth
Unknown
Elevation
Unknown
Doppler factor
Unknown
Orbital elements
Apogee altitude
351.612 km
Perigee altitude
350.138 km
Semi-major axis
6,729.012 km
Eccentricity
0.00011
Inclination
53.0462°
RAAN
259.4873°
Arg. of periapsis
15.742°
True anomaly
344.35982°
Mean anomaly
344.3632°
Eccentric anomaly
344.36151°
Mean motion
3.93202 °/min
Orbital period
91.56 mins
BSTAR
0.0010534
Loading maneuver chart data...
Computing Atmospheric mass density...

Documentation

Showing up to 5 results
|